Weather History for Meridian, MS

Change the Weather History Date:

Monday, January 21, 2013

  Actual Average Record
Temperature  
Mean Temperature 46 °F 45 °F  
Max Temperature 61 °F 57 °F 80 °F (1982)
Min Temperature 31 °F 33 °F 5 °F (1985)
Degree Days  
Heating Degree Days 19 20  
Month to date heating degree days 366 431  
Since 1 July heating degree days 1322 1439  
Cooling Degree Days 0 0  
Month to date cooling degree days 11 0  
Year to date cooling degree days 11 0  
Moisture  
Dew Point 34 °F    
Average Humidity 72    
Maximum Humidity 100    
Minimum Humidity 43    
Precipitation  
Precipitation 0.00 in 0.18 in 2.46 in (1935)
Month to date precipitation 8.11 3.27  
Year to date precipitation 8.11 3.27  
Sea Level Pressure  
Sea Level Pressure 30.21 in    
Wind  
Wind Speed 4 mph (North)    
Max Wind Speed 15 mph    
Max Gust Speed 22 mph    
Visibility 9 miles    
Events      
T = Trace of Precipitation, MM = Missing Value Source: NWS Daily Summary

Daily Weather History Graph

Daily Weather History Graph

Search for Another Location

Airport:

Trip Planner

Search our weather history database for the weather conditions in past years. The results will help you decide how hot, cold, wet, or windy it might be!

Date:

Astronomy

Jan. 21, 2013 Rise Set
Actual Time 6:54 AM CST 5:18 PM CST
Civil Twilight 6:28 AM CST 5:44 PM CST
Nautical Twilight 5:58 AM CST 6:14 PM CST
Astronomical Twilight 5:29 AM CST 6:43 PM CST
Moon 12:59 PM CST (1/21) 2:22 AM CST (1/21)
Length of Visible Light 11h 16m
Length of Day
10h 23m
Waxing Gibbous, 75% of the Moon is Illuminated
Jan 21
Waxing Gibbous
Jan 26
Full
Feb 3
Last Quarter
Feb 10
New
Feb 17
First Quarter

Hourly Weather History & Observations

Time (CST) Temp. Windchill Dew Point Humidity Pressure Visibility Wind Dir Wind Speed Gust Speed Precip Events Conditions
12:58 AM 34.0 °F - 34.0 °F 100% 30.15 in 8.0 mi Calm Calm - N/A   Clear
1:58 AM 34.0 °F - 33.1 °F 96% 30.15 in 9.0 mi Calm Calm - N/A   Clear
2:58 AM 33.1 °F - 33.1 °F 100% 30.15 in 9.0 mi Calm Calm - N/A   Clear
3:58 AM 33.1 °F - 33.1 °F 100% 30.15 in 8.0 mi Calm Calm - N/A   Clear
4:58 AM 33.1 °F - 32.0 °F 96% 30.17 in 10.0 mi Calm Calm - N/A   Clear
5:06 AM 32.0 °F - 32.0 °F 100% 30.17 in 5.0 mi Calm Calm - N/A   Clear
5:19 AM 32.0 °F - 32.0 °F 100% 30.17 in 8.0 mi Calm Calm - N/A   Clear
5:58 AM 32.0 °F - 30.9 °F 96% 30.17 in 9.0 mi Calm Calm - N/A   Clear
6:58 AM 32.0 °F - 30.9 °F 96% 30.19 in 7.0 mi Calm Calm - N/A   Clear
7:58 AM 33.1 °F - 33.1 °F 100% 30.21 in 10.0 mi Calm Calm - N/A   Clear
8:58 AM 42.1 °F - 39.9 °F 92% 30.22 in 10.0 mi Calm Calm - N/A   Clear
9:58 AM 53.1 °F - 42.1 °F 66% 30.23 in 10.0 mi NNE 3.5 mph - N/A   Clear
10:58 AM 59.0 °F - 41.0 °F 51% 30.22 in 10.0 mi North 9.2 mph - N/A   Clear
11:58 AM 60.1 °F - 39.9 °F 47% 30.21 in 10.0 mi North 10.4 mph - N/A   Clear
12:58 PM 60.1 °F - 39.9 °F 47% 30.19 in 10.0 mi NNE 9.2 mph 17.3 mph N/A   Clear
1:58 PM 59.0 °F - 37.9 °F 46% 30.20 in 10.0 mi NNE 10.4 mph - N/A   Scattered Clouds
2:58 PM 57.0 °F - 36.0 °F 45% 30.20 in 10.0 mi NNW 13.8 mph - N/A   Clear
3:58 PM 54.0 °F - 34.0 °F 47% 30.22 in 10.0 mi North 10.4 mph - N/A   Clear
4:58 PM 51.1 °F - 34.0 °F 52% 30.23 in 10.0 mi North 5.8 mph - N/A   Clear
5:58 PM 45.0 °F 43.5 °F 36.0 °F 71% 30.24 in 10.0 mi North 3.5 mph - N/A   Clear
6:58 PM 41.0 °F 37.1 °F 36.0 °F 82% 30.24 in 10.0 mi North 5.8 mph - N/A   Clear
7:58 PM 39.0 °F - 35.1 °F 86% 30.24 in 10.0 mi Calm Calm - N/A   Clear
8:58 PM 36.0 °F - 34.0 °F 93% 30.25 in 10.0 mi Calm Calm - N/A   Clear
9:58 PM 36.0 °F 31.1 °F 32.0 °F 86% 30.25 in 10.0 mi NNW 5.8 mph - N/A   Clear
10:58 PM 36.0 °F 30.3 °F 30.0 °F 79% 30.26 in 10.0 mi NNW 6.9 mph - N/A   Clear
11:58 PM 36.0 °F 30.3 °F 26.1 °F 67% 30.26 in 10.0 mi North 6.9 mph - N/A   Clear